CW8842 Weather Reports


time (UTC)temp
F
wind
direction
speed
knots
gust
knots
rain 1hr
in
rain 24hr
in
rain mn
in
humidity
%
barometer
mb
20260509054628 53 319 0.9 4.3 0.00 0.00 0.00 46 1018.7
20260509053615 53 49 3.5 5.2 0.00 0.00 0.00 47 1018.6
20260509052624 54 55 0.9 7.8 0.00 0.00 0.00 45 1018.6
20260509051612 55 57 0.0 1.7 0.00 0.00 0.00 46 1018.6
20260509050624 55 128 0.0 0.9 0.00 0.00 0.00 45 1018.6
20260509045626 56 141 0.0 0.9 0.00 0.00 0.00 44 1018.6
20260509044616 56 111 1.7 2.6 0.00 0.00 0.00 45 1018.4
20260509043626 56 107 0.0 1.7 0.00 0.00 0.00 45 1018.5
20260509042618 57 151 2.6 4.3 0.00 0.00 0.00 44 1018.4
20260509041643 57 38 0.0 2.6 0.00 0.00 0.00 44 1018.3
20260509040631 58 44 0.0 1.7 0.00 0.00 0.00 43 1018.4
20260509035631 58 44 0.9 2.6 0.00 0.00 0.00 41 1018.5
20260509034619 57 32 0.9 3.5 0.00 0.00 0.00 44 1018.5
20260509033626 58 38 0.9 2.6 0.00 0.00 0.00 41 1018.2
20260509032631 59 26 1.7 3.5 0.00 0.00 0.00 45 1018.1
20260509031616 59 47 1.7 2.6 0.00 0.00 0.00 41 1018.0
20260509030628 59 30 0.9 1.7 0.00 0.00 0.00 43 1017.9
20260509025615 60 16 1.7 2.6 0.00 0.00 0.00 48 1017.8
20260509024619 61 56 0.9 2.6 0.00 0.00 0.00 39 1017.6
20260509023627 62 344 0.0 3.5 0.00 0.00 0.00 40 1017.4
20260509022639 64 350 0.0 1.7 0.00 0.00 0.00 36 1017.2
20260509021624 65 324 0.0 1.7 0.00 0.00 0.00 35 1017.2
20260509020616 65 273 0.0 2.6 0.00 0.00 0.00 30 1017.1
20260509015614 65 173 0.0 1.7 0.00 0.00 0.00 30 1017.1
20260509014622 65 184 0.9 1.7 0.00 0.00 0.00 31 1017.1
20260509013615 65 190 1.7 4.3 0.00 0.00 0.00 31 1017.1
20260509012646 66 202 3.5 5.2 0.00 0.00 0.00 30 1017.0
20260509011615 66 115 3.5 9.6 0.00 0.00 0.00 30 1017.1
20260509010615 67 180 2.6 7.0 0.00 0.00 0.00 29 1017.1
20260509005639 68 197 5.2 7.0 0.00 0.00 0.00 27 1017.1
20260509004627 68 156 3.5 7.8 0.00 0.00 0.00 28 1017.1
20260509003616 68 202 5.2 8.7 0.00 0.00 0.00 27 1017.2
20260509002622 68 161 5.2 8.7 0.00 0.00 0.00 28 1017.3
20260509001622 69 217 4.3 8.7 0.00 0.00 0.00 26 1017.1
20260509000612 69 194 1.7 7.8 0.00 0.00 0.00 27 1017.2
20260508235635 69 191 5.2 8.7 0.00 0.00 0.00 27 1017.3
20260508234620 69 206 3.5 8.7 0.00 0.00 0.00 25 1017.4
20260508233627 69 36 1.7 8.7 0.00 0.00 0.00 27 1017.3
20260508232616 69 213 6.1 12.2 0.00 0.00 0.00 28 1017.2
20260508231622 69 210 6.1 8.7 0.00 0.00 0.00 26 1017.5
20260508230612 69 182 6.1 9.6 0.00 0.00 0.00 30 1017.4
20260508225632 68 179 6.1 9.6 0.00 0.00 0.00 28 1017.6
20260508224626 68 198 5.2 12.2 0.00 0.00 0.00 30 1017.6
20260508223615 69 153 5.2 11.3 0.00 0.00 0.00 30 1017.9
20260508222624 69 166 7.8 12.2 0.00 0.00 0.00 29 1018.1
20260508221631 68 173 4.3 12.2 0.00 0.00 0.00 31 1018.2
20260508220642 68 155 8.7 13.9 0.00 0.00 0.00 30 1018.4
20260508215621 68 143 1.7 6.1 0.00 0.00 0.00 30 1018.6
20260508214629 68 198 7.0 13.9 0.00 0.00 0.00 33 1018.5
20260508213619 67 209 7.8 11.3 0.00 0.00 0.00 31 1018.7
20260508212614 66 346 3.5 15.6 0.00 0.00 0.00 30 1018.9
20260508211625 68 213 7.0 12.2 0.00 0.00 0.00 29 1018.9
20260508210613 66 205 0.0 11.3 0.00 0.00 0.00 30 1018.9
20260508205613 67 240 6.1 22.6 0.00 0.00 0.00 31 1019.1
20260508204624 67 161 5.2 23.5 0.00 0.00 0.00 34 1018.8
20260508203612 66 119 1.7 4.3 0.00 0.00 0.00 33 1019.2
20260508202623 65 92 0.9 11.3 0.00 0.00 0.00 32 1019.2
20260508201632 64 52 1.7 7.8 0.00 0.00 0.00 34 1019.2
20260508200630 64 213 6.1 9.6 0.00 0.00 0.00 32 1019.2
20260508195628 64 211 2.6 7.0 0.00 0.00 0.00 34 1019.2
20260508194616 64 325 4.3 11.3 0.00 0.00 0.00 33 1019.2
20260508193625 64 46 5.2 8.7 0.00 0.00 0.00 32 1019.4
20260508192639 64 22 5.2 12.2 0.00 0.00 0.00 32 1019.4
20260508191625 66 69 1.7 6.1 0.00 0.00 0.00 31 1019.3
20260508190624 64 159 2.6 6.1 0.00 0.00 0.00 32 1019.4
20260508185625 63 94 1.7 11.3 0.00 0.00 0.00 32 1019.5
20260508184621 63 355 5.2 10.4 0.00 0.00 0.00 34 1019.6
20260508183631 62 355 4.3 13.0 0.00 0.00 0.00 33 1019.5
20260508182622 63 17 2.6 7.8 0.00 0.00 0.00 33 1019.7
20260508181630 63 74 4.3 9.6 0.00 0.00 0.00 31 1020.1
20260508180651 62 32 3.5 8.7 0.00 0.00 0.00 32 1019.9
20260508175614 62 74 2.6 10.4 0.00 0.00 0.00 34 1020.1
20260508174619 62 59 2.6 12.2 0.00 0.00 0.00 32 1020.1
20260508173624 61 360 2.6 11.3 0.00 0.00 0.00 33 1020.1
20260508172612 62 351 4.3 10.4 0.00 0.00 0.00 33 1020.1
20260508171644 61 198 2.6 11.3 0.00 0.00 0.00 33 1019.9
20260508170650 62 360 2.6 9.6 0.00 0.00 0.00 30 1019.9
20260508165622 62 46 4.3 8.7 0.00 0.00 0.00 29 1019.9
20260508164613 62 355 3.5 7.8 0.00 0.00 0.00 28 1019.9
20260508163626 62 166 7.8 12.2 0.00 0.00 0.00 28 1019.7
20260508162615 61 333 4.3 11.3 0.00 0.00 0.00 29 1019.7
20260508161624 61 24 7.0 12.2 0.00 0.00 0.00 32 1019.6
20260508160630 61 5 2.6 9.6 0.00 0.00 0.00 32 1019.6
20260508155625 61 11 4.3 12.2 0.00 0.00 0.00 35 1019.5
20260508154617 61 156 1.7 7.0 0.00 0.00 0.00 30 1019.5
20260508153622 61 56 2.6 7.0 0.00 0.00 0.00 31 1019.5
20260508152628 60 344 2.6 7.8 0.00 0.00 0.00 31 1019.5
20260508151620 60 340 1.7 7.0 0.00 0.00 0.00 31 1019.3
20260508150648 60 346 2.6 10.4 0.00 0.00 0.00 31 1019.4
20260508145625 59 5 0.9 7.8 0.00 0.00 0.00 32 1019.3
20260508144649 58 28 2.6 3.5 0.00 0.00 0.00 38 1019.2
20260508143616 58 248 0.9 2.6 0.00 0.00 0.00 39 1019.2
20260508142627 58 178 0.0 6.1 0.00 0.00 0.00 39 1019.3
20260508141635 58 69 1.7 7.0 0.00 0.00 0.00 37 1019.0
20260508140625 57 59 0.9 7.8 0.00 0.00 0.00 38 1018.9
20260508135621 56 5 2.6 4.3 0.00 0.00 0.00 38 1019.0
20260508134612 54 348 2.6 5.2 0.00 0.00 0.00 39 1018.9
20260508133619 53 346 0.9 3.5 0.00 0.00 0.00 44 1018.7
20260508132627 53 224 0.0 1.7 0.00 0.00 0.00 43 1018.6
20260508131614 53 138 0.0 4.3 0.00 0.00 0.00 41 1018.4
20260508130649 53 169 0.0 2.6 0.00 0.00 0.00 42 1018.3
20260508125627 54 146 0.0 3.5 0.00 0.00 0.00 40 1018.1
20260508124651 53 113 0.9 3.5 0.00 0.00 0.00 39 1018.1
20260508123618 54 132 0.9 2.6 0.00 0.00 0.00 39 1018.1
20260508122627 53 110 0.0 1.7 0.00 0.00 0.00 40 1018.0
20260508121641 53 105 0.9 2.6 0.00 0.00 0.00 39 1018.0
20260508120629 52 138 0.9 3.5 0.00 0.00 0.00 41 1017.8
20260508115631 53 83 0.0 0.0 0.00 0.00 0.00 43 1017.8
20260508114636 54 115 0.0 2.6 0.00 0.00 0.00 40 1017.7
20260508113621 55 27 0.9 4.3 0.00 0.00 0.00 38 1017.7
20260508112631 56 10 2.6 8.7 0.00 0.00 0.00 36 1017.6
20260508111621 56 5 5.2 12.2 0.00 0.00 0.00 35 1017.5
20260508110631 54 348 4.3 7.8 0.00 0.00 0.00 38 1017.6
20260508105627 54 51 1.7 7.8 0.00 0.00 0.00 39 1017.5
20260508104636 53 36 0.9 3.5 0.00 0.00 0.00 41 1017.5
20260508103623 54 63 0.0 3.5 0.00 0.00 0.00 39 1017.4
20260508102613 55 40 2.6 3.5 0.00 0.00 0.00 37 1017.4
20260508101623 56 329 3.5 9.6 0.00 0.00 0.00 37 1017.3
20260508100615 56 49 2.6 9.6 0.00 0.00 0.00 35 1017.3
20260508095613 56 36 7.0 11.3 0.00 0.00 0.00 35 1017.3
20260508094620 56 348 5.2 8.7 0.00 0.00 0.00 35 1017.3
20260508093625 55 9 2.6 6.1 0.00 0.00 0.00 36 1017.3
20260508092616 55 65 0.9 4.3 0.00 0.00 0.00 38 1017.3
20260508091623 55 109 0.0 1.7 0.00 0.00 0.00 36 1017.4
20260508090614 56 101 0.9 3.5 0.00 0.00 0.00 34 1017.4
20260508085615 57 324 0.0 5.2 0.00 0.00 0.00 35 1017.4
20260508084624 58 225 3.5 6.1 0.00 0.00 0.00 31 1017.4
20260508083630 56 199 3.5 9.6 0.00 0.00 0.00 33 1017.5
20260508082618 56 104 0.0 4.3 0.00 0.00 0.00 36 1017.6
20260508081627 55 47 6.1 10.4 0.00 0.00 0.00 34 1017.5
20260508080626 53 11 4.3 9.6 0.00 0.00 0.00 43 1017.6
20260508075643 53 341 5.2 11.3 0.00 0.00 0.00 38 1017.6
20260508074627 50 277 0.9 3.5 0.00 0.00 0.00 52 1017.6
20260508073616 50 24 1.7 4.3 0.00 0.00 0.00 54 1017.7
20260508072628 50 25 0.9 3.5 0.00 0.00 0.00 53 1017.6
20260508071614 50 159 0.0 0.0 0.00 0.00 0.00 52 1017.7
20260508070628 50 180 0.9 3.5 0.00 0.00 0.00 53 1017.8
20260508065629 49 22 0.9 3.5 0.00 0.00 0.00 55 1017.7
20260508064638 49 55 0.0 5.2 0.00 0.00 0.00 56 1017.6
20260508063630 51 104 0.0 2.6 0.00 0.00 0.00 55 1017.6
20260508062617 52 33 1.7 8.7 0.00 0.00 0.00 52 1017.6
20260508061624 50 61 2.6 4.3 0.00 0.00 0.00 55 1017.7
20260508060640 51 42 2.6 4.3 0.00 0.00 0.00 56 1017.5
20260508055639 51 355 0.9 3.5 0.00 0.00 0.00 53 1017.5